sat.trackr.live / text

‹ back to catalog

STARLINK-32690

NORAD 62453 · 2024-251X

PAYLOAD ACTIVE UNKNOWN

§ Identity

Operator
Country
US
Launch date
2024-12-29
Launch site
AFWTR
Launch vehicle
Mass (kg)
RCS (m²)

Purposes: comms

External: N2YO · Heavens-Above · Gunter

§ Orbital elements

Epoch: 2026-05-24T22:17:55.610304Z

Period
94.11 min
Inclination
53.1615°
Eccentricity
0.0000656
Mean motion
15.30205228 rev/d
Perigee alt
474.7 km
Apogee alt
475.6 km
Semi-major
6,853.3 km
B*
4.0055e-4
RAAN
340.9900°
Arg perigee
96.6901°
Mean anomaly
263.4175°
Rev number
7,924

§ Raw data

STARLINK-326901 62453U 24251X   26144.92911586  .00011525  00000+0  40055-3 0  99922 62453  53.1615 340.9900 0000656  96.6901 263.4175 15.30205228 79244

JSON: /api/v1/satellites/62453 · /tle

For live sub-satellite position, see the globe view (requires WebGL).

§ Visibility from observer

Set your observer location to see the next 7 days of passes ≥ 10°. The values pass through the URL so the page stays shareable.

No JS? Fill the form by hand. The geolocation button needs JavaScript.